| time (UTC) | temp F | wind direction | speed MPH | gust MPH | rain 1hr in | rain 24hr in | rain mn in | humidity % | barometer mb |
| 20260504014259 | 54 | 167 | 2.0 | 4.0 | 0.00 | 0.00 | 0.00 | 75 | 968.8 |
| 20260504013618 | 54 | 194 | 5.0 | 7.0 | 0.00 | 0.00 | 0.00 | 74 | 968.8 |
| 20260504012941 | 54 | 222 | 5.0 | 0.0 | 0.00 | 0.00 | 0.00 | 74 | 968.8 |
| 20260504012300 | 54 | 169 | 3.0 | 6.0 | 0.00 | 0.00 | 0.00 | 73 | 968.8 |
| 20260504011623 | 54 | 203 | 4.0 | 6.0 | 0.00 | 0.00 | 0.00 | 72 | 968.7 |
| 20260504010942 | 55 | 152 | 3.0 | 5.0 | 0.00 | 0.00 | 0.00 | 72 | 968.6 |
| 20260504010304 | 55 | 208 | 6.0 | 3.0 | 0.00 | 0.00 | 0.00 | 71 | 968.5 |
| 20260504005623 | 55 | 212 | 7.0 | 5.0 | 0.00 | 0.00 | 0.00 | 70 | 968.6 |
| 20260504004946 | 55 | 215 | 6.0 | 6.0 | 0.00 | 0.00 | 0.00 | 69 | 968.6 |
| 20260504004305 | 56 | 194 | 6.0 | 0.0 | 0.00 | 0.00 | 0.00 | 68 | 968.7 |
| 20260504003628 | 56 | 212 | 4.0 | 7.0 | 0.00 | 0.00 | 0.00 | 67 | 968.5 |
| 20260504002947 | 57 | 150 | 7.0 | 5.0 | 0.00 | 0.00 | 0.00 | 65 | 968.4 |
| 20260504002310 | 57 | 191 | 6.0 | 8.0 | 0.00 | 0.00 | 0.00 | 64 | 968.4 |
| 20260504001629 | 57 | 233 | 6.0 | 6.0 | 0.00 | 0.00 | 0.00 | 64 | 968.4 |
| 20260504000952 | 57 | 153 | 9.0 | 3.0 | 0.00 | 0.00 | 0.00 | 64 | 968.4 |
| 20260504000311 | 57 | 176 | 8.0 | 6.0 | 0.00 | 0.00 | 0.00 | 64 | 968.3 |
| 20260503235633 | 57 | 160 | 8.0 | 8.0 | 0.00 | 0.00 | 0.00 | 64 | 968.3 |
| 20260503234953 | 57 | 181 | 6.0 | 8.0 | 0.00 | 0.00 | 0.00 | 63 | 968.2 |
| 20260503234315 | 58 | 181 | 9.0 | 3.0 | 0.00 | 0.00 | 0.00 | 63 | 968.2 |
| 20260503233634 | 58 | 222 | 2.0 | 3.0 | 0.00 | 0.00 | 0.00 | 63 | 968.2 |
| 20260503232957 | 58 | 179 | 9.0 | 6.0 | 0.00 | 0.00 | 0.00 | 62 | 968.2 |
| 20260503232316 | 58 | 174 | 7.0 | 8.0 | 0.00 | 0.00 | 0.00 | 62 | 968.3 |
| 20260503231639 | 58 | 170 | 9.0 | 16.0 | 0.00 | 0.00 | 0.00 | 61 | 968.1 |
| 20260503230958 | 58 | 229 | 9.0 | 14.0 | 0.00 | 0.00 | 0.00 | 62 | 968.5 |
| 20260503230321 | 57 | 129 | 9.0 | 15.0 | 0.00 | 0.00 | 0.00 | 62 | 968.6 |
| 20260503225640 | 57 | 179 | 7.0 | 6.0 | 0.00 | 0.00 | 0.00 | 62 | 968.6 |
| 20260503225003 | 57 | 194 | 7.0 | 8.0 | 0.00 | 0.00 | 0.00 | 62 | 968.7 |
| 20260503224322 | 57 | 186 | 10.0 | 6.0 | 0.00 | 0.00 | 0.00 | 63 | 968.9 |
| 20260503223644 | 57 | 212 | 12.0 | 8.0 | 0.00 | 0.00 | 0.00 | 63 | 969.3 |
| 20260503223004 | 57 | 248 | 8.0 | 6.0 | 0.00 | 0.00 | 0.00 | 63 | 969.1 |
| 20260503222326 | 56 | 235 | 13.0 | 10.0 | 0.00 | 0.00 | 0.00 | 63 | 969.4 |
| 20260503221645 | 56 | 166 | 8.0 | 13.0 | 0.00 | 0.00 | 0.00 | 64 | 969.3 |
| 20260503221008 | 56 | 191 | 13.0 | 9.0 | 0.00 | 0.00 | 0.00 | 64 | 969.4 |
| 20260503220327 | 56 | 166 | 12.0 | 17.0 | 0.00 | 0.00 | 0.00 | 64 | 969.6 |
| 20260503215650 | 56 | 162 | 9.0 | 19.0 | 0.00 | 0.00 | 0.00 | 64 | 969.6 |
| 20260503215009 | 56 | 207 | 10.0 | 7.0 | 0.00 | 0.00 | 0.00 | 65 | 969.7 |
| 20260503214332 | 56 | 205 | 12.0 | 8.0 | 0.00 | 0.00 | 0.00 | 66 | 969.9 |
| 20260503213651 | 56 | 197 | 13.0 | 15.0 | 0.00 | 0.00 | 0.00 | 66 | 969.9 |
| 20260503213014 | 56 | 162 | 13.0 | 10.0 | 0.00 | 0.00 | 0.00 | 66 | 970.3 |
| 20260503212333 | 56 | 179 | 8.0 | 8.0 | 0.00 | 0.00 | 0.00 | 69 | 970.4 |
| 20260503211656 | 55 | 238 | 10.0 | 10.0 | 0.00 | 0.00 | 0.00 | 69 | 970.4 |
| 20260503210337 | 55 | 263 | 12.0 | 6.0 | 0.00 | 0.00 | 0.00 | 71 | 970.7 |
| 20260503205657 | 54 | 229 | 12.0 | 6.0 | 0.00 | 0.00 | 0.00 | 73 | 970.8 |
| 20260503205019 | 53 | 203 | 9.0 | 15.0 | 0.00 | 0.00 | 0.00 | 74 | 971.0 |
| 20260503204338 | 53 | 180 | 11.0 | 11.0 | 0.00 | 0.00 | 0.00 | 75 | 971.2 |
| 20260503203701 | 53 | 177 | 12.0 | 7.0 | 0.00 | 0.00 | 0.00 | 75 | 971.2 |
| 20260503203020 | 53 | 233 | 9.0 | 12.0 | 0.00 | 0.00 | 0.00 | 76 | 971.4 |
| 20260503202343 | 53 | 222 | 8.0 | 9.0 | 0.00 | 0.00 | 0.00 | 76 | 971.5 |
| 20260503201702 | 52 | 181 | 14.0 | 11.0 | 0.00 | 0.00 | 0.00 | 75 | 971.4 |
| 20260503201025 | 52 | 207 | 5.0 | 11.0 | 0.00 | 0.00 | 0.00 | 75 | 971.6 |
| 20260503200344 | 53 | 240 | 10.0 | 9.0 | 0.00 | 0.00 | 0.00 | 74 | 971.5 |
| 20260503195707 | 53 | 197 | 9.0 | 14.0 | 0.00 | 0.00 | 0.00 | 72 | 971.5 |
| 20260503195026 | 54 | 207 | 11.0 | 9.0 | 0.00 | 0.00 | 0.00 | 70 | 971.5 |
| 20260503194348 | 54 | 201 | 10.0 | 15.0 | 0.00 | 0.00 | 0.00 | 69 | 971.4 |
| 20260503193708 | 55 | 193 | 7.0 | 14.0 | 0.00 | 0.00 | 0.00 | 69 | 971.4 |
| 20260503193030 | 55 | 226 | 5.0 | 10.0 | 0.00 | 0.00 | 0.00 | 68 | 971.3 |
| 20260503192349 | 56 | 214 | 8.0 | 5.0 | 0.00 | 0.00 | 0.00 | 66 | 971.3 |
| 20260503191712 | 57 | 184 | 6.0 | 3.0 | 0.00 | 0.00 | 0.00 | 65 | 971.3 |
| 20260503191031 | 58 | 188 | 10.0 | 13.0 | 0.00 | 0.00 | 0.00 | 63 | 971.1 |
| 20260503190354 | 58 | 239 | 12.0 | 16.0 | 0.00 | 0.00 | 0.00 | 62 | 971.3 |
| 20260503185713 | 59 | 204 | 10.0 | 15.0 | 0.00 | 0.00 | 0.00 | 60 | 971.2 |
| 20260503185036 | 59 | 221 | 13.0 | 8.0 | 0.00 | 0.00 | 0.00 | 60 | 971.2 |
| 20260503184355 | 59 | 219 | 6.0 | 18.0 | 0.00 | 0.00 | 0.00 | 60 | 971.0 |
| 20260503183718 | 59 | 207 | 9.0 | 14.0 | 0.00 | 0.00 | 0.00 | 60 | 971.1 |
| 20260503182400 | 59 | 193 | 9.0 | 9.0 | 0.00 | 0.00 | 0.00 | 59 | 971.2 |
| 20260503181719 | 60 | 212 | 5.0 | 11.0 | 0.00 | 0.00 | 0.00 | 59 | 971.4 |
| 20260503181041 | 59 | 224 | 9.0 | 14.0 | 0.00 | 0.00 | 0.00 | 59 | 971.4 |
| 20260503180401 | 59 | 249 | 7.0 | 9.0 | 0.00 | 0.00 | 0.00 | 58 | 971.6 |
| 20260503175723 | 59 | 232 | 7.0 | 13.0 | 0.00 | 0.00 | 0.00 | 61 | 971.6 |
| 20260503175043 | 59 | 149 | 8.0 | 8.0 | 0.00 | 0.00 | 0.00 | 61 | 971.8 |
| 20260503173724 | 58 | 253 | 9.0 | 11.0 | 0.00 | 0.00 | 0.00 | 61 | 971.8 |
| 20260503173047 | 58 | 172 | 10.0 | 9.0 | 0.00 | 0.00 | 0.00 | 61 | 971.9 |
| 20260503172406 | 57 | 239 | 7.0 | 9.0 | 0.00 | 0.00 | 0.00 | 63 | 972.1 |
| 20260503171729 | 57 | 221 | 13.0 | 7.0 | 0.00 | 0.00 | 0.00 | 61 | 972.2 |
| 20260503171048 | 57 | 285 | 9.0 | 3.0 | 0.00 | 0.00 | 0.00 | 63 | 972.4 |
| 20260503170411 | 57 | 269 | 7.0 | 7.0 | 0.00 | 0.00 | 0.00 | 63 | 972.2 |
| 20260503150427 | 51 | 184 | 4.0 | 0.0 | 0.00 | 0.00 | 0.00 | 71 | 974.3 |
| 20260503131121 | 50 | 232 | 1.0 | 0.0 | 0.00 | 0.00 | 0.00 | 71 | 974.7 |
| 20260503130444 | 49 | 207 | 3.0 | 6.0 | 0.00 | 0.00 | 0.00 | 72 | 974.9 |
| 20260503110459 | 39 | 158 | 0.0 | 0.0 | 0.00 | 0.00 | 0.00 | 92 | 975.4 |
| 20260503081201 | 39 | 91 | 0.0 | 0.0 | 0.00 | 0.00 | 0.00 | 83 | 976.5 |
| 20260503080520 | 39 | 187 | 2.0 | 0.0 | 0.00 | 0.00 | 0.00 | 82 | 976.6 |
| 20260503072525 | 36 | 181 | 0.0 | 0.0 | 0.00 | 0.00 | 0.00 | 85 | 976.8 |
| 20260503071847 | 36 | 181 | 0.0 | 0.0 | 0.00 | 0.00 | 0.00 | 86 | 976.8 |
| 20260503071206 | 36 | 181 | 0.0 | 0.0 | 0.00 | 0.00 | 0.00 | 86 | 976.9 |
| 20260503070529 | 35 | 181 | 0.0 | 0.0 | 0.00 | 0.00 | 0.00 | 87 | 976.9 |
| 20260503054538 | 36 | 181 | 0.0 | 0.0 | 0.00 | 0.00 | 0.00 | 87 | 977.8 |
| 20260503053857 | 37 | 181 | 0.0 | 0.0 | 0.00 | 0.00 | 0.00 | 86 | 977.8 |
| 20260503053220 | 37 | 181 | 0.0 | 0.0 | 0.00 | 0.00 | 0.00 | 85 | 977.9 |
| 20260503052539 | 37 | 181 | 0.0 | 0.0 | 0.00 | 0.00 | 0.00 | 85 | 978.0 |
| 20260503051901 | 37 | 181 | 0.0 | 0.0 | 0.00 | 0.00 | 0.00 | 84 | 978.1 |
| 20260503051220 | 37 | 181 | 0.0 | 0.0 | 0.00 | 0.00 | 0.00 | 83 | 978.2 |
| 20260503050543 | 37 | 181 | 0.0 | 0.0 | 0.00 | 0.00 | 0.00 | 83 | 978.3 |
| 20260503045224 | 38 | 181 | 0.0 | 0.0 | 0.00 | 0.00 | 0.00 | 82 | 978.4 |
| 20260503044543 | 38 | 181 | 0.0 | 0.0 | 0.00 | 0.00 | 0.00 | 82 | 978.4 |
| 20260503043906 | 38 | 181 | 0.0 | 0.0 | 0.00 | 0.00 | 0.00 | 82 | 978.4 |
| 20260503043225 | 38 | 181 | 0.0 | 0.0 | 0.00 | 0.00 | 0.00 | 82 | 978.5 |
| 20260503042547 | 38 | 181 | 0.0 | 0.0 | 0.00 | 0.00 | 0.00 | 82 | 978.6 |
| 20260503041906 | 38 | 181 | 0.0 | 0.0 | 0.00 | 0.00 | 0.00 | 82 | 978.7 |
| 20260503041229 | 38 | 181 | 0.0 | 0.0 | 0.00 | 0.00 | 0.00 | 82 | 978.7 |
| 20260503040548 | 38 | 181 | 0.0 | 0.0 | 0.00 | 0.00 | 0.00 | 81 | 978.7 |
| 20260503035910 | 38 | 181 | 0.0 | 0.0 | 0.00 | 0.00 | 0.00 | 82 | 978.8 |
| 20260503035230 | 38 | 181 | 0.0 | 0.0 | 0.00 | 0.00 | 0.00 | 82 | 978.9 |
| 20260503034552 | 38 | 181 | 0.0 | 0.0 | 0.00 | 0.00 | 0.00 | 81 | 978.9 |
| 20260503033911 | 39 | 181 | 0.0 | 0.0 | 0.00 | 0.00 | 0.00 | 80 | 978.9 |
| 20260503033234 | 39 | 181 | 0.0 | 0.0 | 0.00 | 0.00 | 0.00 | 79 | 979.0 |
| 20260503032552 | 39 | 181 | 0.0 | 0.0 | 0.00 | 0.00 | 0.00 | 78 | 979.0 |
| 20260503031915 | 40 | 181 | 0.0 | 0.0 | 0.00 | 0.00 | 0.00 | 77 | 979.0 |
| 20260503031308 | 40 | 210 | 1.0 | 5.0 | 0.00 | 0.00 | 0.00 | 77 | 979.0 |
| 20260503031234 | 40 | 210 | 1.0 | 5.0 | 0.00 | 0.00 | 0.00 | 77 | 979.0 |
| 20260503030557 | 40 | 201 | 0.0 | 0.0 | 0.00 | 0.00 | 0.00 | 77 | 979.1 |
| 20260503025916 | 40 | 201 | 0.0 | 0.0 | 0.00 | 0.00 | 0.00 | 76 | 979.1 |
| 20260503025238 | 40 | 201 | 0.0 | 0.0 | 0.00 | 0.00 | 0.00 | 75 | 979.1 |
| 20260503024557 | 41 | 201 | 0.0 | 0.0 | 0.00 | 0.00 | 0.00 | 74 | 979.2 |
| 20260503023920 | 41 | 240 | 0.0 | 0.0 | 0.00 | 0.00 | 0.00 | 74 | 979.2 |
| 20260503023239 | 41 | 179 | 0.0 | 0.0 | 0.00 | 0.00 | 0.00 | 73 | 979.3 |
| 20260503022601 | 41 | 179 | 0.0 | 0.0 | 0.00 | 0.00 | 0.00 | 72 | 979.2 |
| 20260503021920 | 42 | 208 | 0.0 | 3.0 | 0.00 | 0.00 | 0.00 | 71 | 979.1 |
| 20260503021243 | 42 | 135 | 0.0 | 0.0 | 0.00 | 0.00 | 0.00 | 70 | 979.1 |
| 20260503020602 | 42 | 205 | 3.0 | 0.0 | 0.00 | 0.00 | 0.00 | 69 | 979.1 |
| 20260503015924 | 43 | 188 | 3.0 | 4.0 | 0.00 | 0.00 | 0.00 | 68 | 979.1 |
| 20260503015243 | 43 | 207 | 4.0 | 0.0 | 0.00 | 0.00 | 0.00 | 67 | 979.1 |